Flag for Bolivia Weather past 2 weeks in Santa Cruz, Bolivia

Now
75 °F

Passing clouds.


Feels Like: 75 °F
Forecast: 71 / 82 °F
Wind: 8 mph from Northeast

Location: Viru-Viru

Current Time: Sep 19, 2014 at 3:51:24 AM

Latest Report: Sep 19, 2014 at 3:00 AM


Visibility: 5 mi

Pressure: 29.77 "Hg

Humidity: 83%

Dew point: 70 °F

Location of Santa CruzLocation

Historic Weather in Santa Cruz — Graph

°F

Santa Cruz temperature yesterday

Maximum temperature yesterday: 95 °F (at 1:00 PM)
Minimum temperature yesterday: 70 °F (at 2:00 AM)
Average temperature yesterday: 82 °F

Past Weeks' High & Low Weather Summary

 TemperatureHumidityPressure
High95 °F (Sep 8, 2:00 PM)100% (Sep 8, 6:00 AM)30.18 "Hg (Sep 8, 6:00 AM)
Low55 °F (Sep 11, 6:00 AM)25% (Sep 15, 3:00 PM)29.68 "Hg (Sep 9, 5:00 PM)
Average79 °F60%29.88 "Hg
* Reported Sep 4 3:00 AM — Sep 19 3:00 AM, Santa Cruz, Weather by CustomWeather, © 2014

Note: Actual official high and low records may vary slightly from our data, if they occured in-between our weather recording intervals... More about our weather records

Advertising

Santa Cruz weather history for previous 24 hours

 ConditionsComfort  
Time TempWeatherWind HumidityBarometerVisibility
3:00 AM
Sep 19
75 °FPassing clouds.8 mph83%29.77 "Hg5 mi
2:00 AM79 °FPassing clouds.9 mph74%29.74 "Hg5 mi
1:00 AM81 °FPassing clouds.10 mph70%29.74 "Hg5 mi
12:00 AM82 °FPassing clouds.12 mph66%29.77 "Hg5 mi
11:00 PM
Sep 18
82 °FPassing clouds.13 mph58%29.77 "Hg5 mi
10:00 PM81 °FPassing clouds.12 mph62%29.77 "Hg5 mi
9:00 PM81 °FPassing clouds.7 mph62%29.77 "Hg5 mi
8:00 PM82 °FPassing clouds.8 mph55%29.77 "Hg5 mi
7:00 PM84 °FPassing clouds.12 mph51%29.74 "Hg5 mi
6:00 PM88 °FPartly sunny.12 mph49%29.74 "Hg5 mi
5:00 PM91 °FPartly sunny.17 mph41%29.71 "Hg5 mi
4:00 PM93 °FBroken clouds.21 mph39%29.71 "Hg5 mi
3:00 PM95 °FBroken clouds.25 mph34%29.74 "Hg5 mi
2:00 PM95 °FBroken clouds.24 mph39%29.77 "Hg5 mi
1:00 PM95 °FPartly sunny.23 mph39%29.83 "Hg5 mi
12:00 PM91 °FPartly sunny.20 mph46%29.86 "Hg5 mi
11:00 AM90 °FPartly sunny.17 mph49%29.89 "Hg5 mi
10:00 AM88 °FBroken clouds.13 mph55%29.92 "Hg5 mi
9:00 AM82 °FPartly sunny.14 mph66%29.92 "Hg4 mi
8:00 AM77 °FBroken clouds.9 mph79%29.92 "Hg4 mi
7:00 AM73 °FPartly sunny.5 mph89%29.89 "Hg4 mi
6:00 AM72 °FPassing clouds.6 mph88%29.86 "Hg5 mi
5:00 AM73 °FPartly cloudy.5 mph83%29.86 "Hg5 mi
4:00 AM73 °FPartly cloudy.6 mph78%29.83 "Hg5 mi
3:00 AM72 °FPassing clouds.3 mph83%29.83 "Hg5 mi
Weather by CustomWeather, © 2014

See weather overviewHow to use our weather pages